Flag for U.S.A. Weather past 2 weeks in Raleigh, North Carolina, U.S.A.

Now
92 °F

Scattered clouds.


Feels Like: 90 °F
Forecast: 66 / 90 °F
Wind: No wind

Location: Raleigh-Durham International Airport

Current Time: Aug 1, 2015 at 4:24:03 PM

Latest Report: Aug 1, 2015 at 3:51 PM


Visibility: 10 mi

Pressure: 29.87 "Hg

Humidity: 29%

Dew point: 55 °F

Location of RaleighLocation

Historic Weather in Raleigh — Graph

°F

Raleigh temperature yesterday

Maximum temperature yesterday: 90 °F (at 3:51 PM)
Minimum temperature yesterday: 73 °F (at 6:51 AM)
Average temperature yesterday: 81 °F

Past Weeks' High & Low Weather Summary

 TemperatureHumidityPressure
High94 °F (Jul 30, 3:51 PM)97% (Jul 21, 8:51 PM)30.04 "Hg (Jul 21, 8:51 PM)
Low64 °F (Jul 25, 5:51 AM)33% (Aug 1, 2:51 PM)29.68 "Hg (Jul 21, 5:51 PM)
Average80 °F72%29.93 "Hg
* Reported Jul 17 2:51 PM — Aug 1 2:51 PM, Raleigh, Weather by CustomWeather, © 2015

Note: Actual official high and low records may vary slightly from our data, if they occured in-between our weather recording intervals... More about our weather records

Advertising

Raleigh weather history for previous 24 hours

 ConditionsComfort  
Time TempWeatherWind HumidityBarometerVisibility
2:51 PM
Sat, Aug 1
92 °FScattered clouds.3 mph33%29.89 "Hg10 mi
1:51 PM90 °FScattered clouds.5 mph34%29.91 "Hg10 mi
12:51 PM89 °FScattered clouds.6 mph38%29.93 "Hg10 mi
11:51 AM87 °FScattered clouds.No wind42%29.95 "Hg10 mi
10:51 AM86 °FPassing clouds.3 mph46%29.95 "Hg10 mi
9:51 AM81 °FPassing clouds.No wind56%29.94 "Hg10 mi
8:51 AM77 °FPassing clouds.No wind64%29.95 "Hg10 mi
7:51 AM73 °FScattered clouds.No wind79%29.94 "Hg10 mi
6:51 AM66 °FFog.No wind93%29.93 "Hg6 mi
5:51 AM66 °FFog.No wind93%29.92 "Hg6 mi
4:51 AM67 °FPassing clouds.No wind90%29.92 "Hg10 mi
3:51 AM68 °FPassing clouds.No wind90%29.91 "Hg10 mi
2:51 AM69 °FPassing clouds.No wind87%29.92 "Hg10 mi
1:51 AM70 °FPassing clouds.No wind84%29.93 "Hg10 mi
12:51 AM71 °FPassing clouds.No wind81%29.93 "Hg10 mi
11:51 PM
Fri, Jul 31
73 °FPassing clouds.No wind79%29.93 "Hg10 mi
10:51 PM74 °FPassing clouds.No wind74%29.95 "Hg10 mi
9:51 PM77 °FPassing clouds.No wind66%29.94 "Hg10 mi
8:51 PM79 °FScattered clouds.No wind58%29.92 "Hg10 mi
7:51 PM84 °FScattered clouds.No wind49%29.91 "Hg10 mi
6:51 PM87 °FScattered clouds.7 mph42%29.89 "Hg10 mi
5:51 PM88 °FScattered clouds.6 mph45%29.88 "Hg10 mi
4:51 PM90 °FScattered clouds.3 mph42%29.88 "Hg10 mi
Weather by CustomWeather, © 2015

See weather overviewHow to use our weather pages